Mather, CA

10:18 PM PDT on August 29, 2016 (GMT -0700)
Mather

Weather History for KMHR - February, 2014

Change the Weather History Date:

Friday, February 7, 2014

  Actual Average Record
Temperature  
Mean Temperature 48 °F -  
Max Temperature 50 °F 54 °F 69 °F (2006)
Min Temperature 46 °F 37 °F 32 °F (2003)
Degree Days  
Heating Degree Days 17    
Moisture  
Dew Point 48 °F    
Average Humidity 96    
Maximum Humidity 100    
Minimum Humidity 87    
Precipitation  
Precipitation 0.00 in - - ()
Sea Level Pressure  
Sea Level Pressure 30.06 in    
Wind  
Wind Speed 12 mph (SSE)    
Max Wind Speed 21 mph    
Max Gust Speed 25 mph    
Visibility 7 miles    
Events Rain    
Averages and records for this station are not official NWS values.
T = Trace of Precipitation, MM = Missing Value Source: NWS Daily Summary

Daily Weather History Graph

Daily Weather History Graph

Search for Another Location

Airport or City:

Trip Planner

Search our weather history database for the weather conditions in past years. The results will help you decide how hot, cold, wet, or windy it might be!

Date:

Astronomy

Feb. 07, 2014 Rise Set
Actual Time 7:04 AM PST 5:34 PM PST
Civil Twilight 6:37 AM PST 6:01 PM PST
Nautical Twilight 6:05 AM PST 6:33 PM PST
Astronomical Twilight 5:34 AM PST 7:04 PM PST
Moon 11:50 AM PST (2/7) 1:25 AM PST (2/7)
Length of Visible Light 11h 24m
Length of Day
10h 29m
First Quarter, 60% of the Moon is Illuminated
Feb 7
First Quarter
Feb 14
Full
Feb 22
Last Quarter
Mar 1
New
Mar 8
First Quarter

Hourly Weather History & Observations

Time (PST) Temp. Windchill Dew Point Humidity Pressure Visibility Wind Dir Wind Speed Gust Speed Precip Events Conditions
2:55 AM 46.4 °F 42.4 °F 46.4 °F 100% 30.04 in 8.0 mi SSE 8.1 mph - N/A   Overcast
3:45 AM 46.4 °F 41.5 °F 46.4 °F 100% - 8.0 mi SSE 10.4 mph - N/A   Overcast
4:50 AM 46.4 °F 41.1 °F 46.4 °F 100% 30.05 in 10.0 mi SE 11.5 mph - N/A   Scattered Clouds
5:50 AM 46.4 °F 41.1 °F 46.4 °F 100% 30.05 in 10.0 mi SE 11.5 mph - N/A   Mostly Cloudy
6:52 AM 46.4 °F 41.5 °F 46.4 °F 100% 30.05 in 10.0 mi SSE 10.4 mph - N/A   Overcast
7:50 AM 48.2 °F - 46.4 °F 93% 30.07 in 10.0 mi SSE 6.9 mph - N/A   Overcast
8:45 AM 48.2 °F - 46.4 °F 93% 30.08 in 10.0 mi SE 8.1 mph - N/A   Overcast
9:58 AM 50.0 °F - 46.4 °F 87% 30.10 in 8.0 mi SE 12.7 mph - N/A   Overcast
10:17 AM 50.0 °F - 48.2 °F 94% 30.11 in 4.0 mi South 11.5 mph - N/A Rain Light Rain
10:29 AM 50.0 °F - 48.2 °F 94% 30.12 in 2.5 mi South 12.7 mph - N/A Rain Light Rain
10:47 AM 50.0 °F - 48.2 °F 94% 30.13 in 2.5 mi South 13.8 mph - N/A Rain Light Rain
11:45 AM 50.0 °F - 50.0 °F 100% 30.10 in 10.0 mi SSE 12.7 mph - N/A   Overcast
12:45 PM 50.0 °F - 50.0 °F 100% 30.06 in 6.0 mi SSE 16.1 mph - N/A   Overcast
1:45 PM 50.0 °F - 50.0 °F 100% 30.04 in 3.0 mi SSE 15.0 mph - N/A Rain Light Rain
2:45 PM 50.0 °F - 50.0 °F 100% 30.03 in 6.0 mi SSE 16.1 mph 20.7 mph N/A   Overcast
3:45 PM 50.0 °F - 50.0 °F 100% 30.02 in 4.0 mi SSE 18.4 mph 24.2 mph N/A   Overcast
4:45 PM 50.0 °F - 48.2 °F 94% 30.02 in 2.5 mi SSE 18.4 mph 23.0 mph N/A   Overcast
5:38 PM 48.2 °F - 46.4 °F 93% 30.03 in 9.0 mi SE 17.3 mph - N/A   Overcast
5:50 PM 48.2 °F - 46.4 °F 93% 30.02 in 8.0 mi SSE 18.4 mph 23.0 mph N/A   Overcast
6:46 PM 50.0 °F - 48.2 °F 94% 30.04 in - SSE 15.0 mph 20.7 mph N/A   Overcast
7:46 PM 50.0 °F - 48.2 °F 94% 30.05 in 10.0 mi SSE 18.4 mph 24.2 mph N/A   Overcast
8:46 PM 50.0 °F - 48.2 °F 94% 30.07 in 7.0 mi SSE 20.7 mph 25.3 mph N/A   Overcast
9:46 PM 50.0 °F - 48.2 °F 94% 30.09 in 8.0 mi North - - N/A   Overcast
10:46 PM 50.0 °F - 48.2 °F 94% 30.11 in 5.0 mi SSE 17.3 mph 25.3 mph N/A Rain Light Rain